Denton, TX

5:36 PM CST on February 05, 2016 (GMT -0600)
Denton Municipal

Weather History for KDTO - August, 2013

Change the Weather History Date:

Wednesday, August 7, 2013

  Actual Average (KDFW) Record (KDFW)
Temperature  
Mean Temperature 92 °F 86 °F  
Max Temperature 106 °F 97 °F 106 °F (1988)
Min Temperature 80 °F 76 °F 61 °F (1997)
Degree Days  
Heating Degree Days 0 0  
Month to date heating degree days 0  
Since 1 June heating degree days 0  
Since 1 July heating degree days 0  
Cooling Degree Days 28 21  
Month to date cooling degree days 147  
Year to date cooling degree days 1691  
Since 1 June cooling degree days 1269  
Growing Degree Days 42 (Base 50)    
Moisture  
Dew Point 65 °F    
Average Humidity 43    
Maximum Humidity 67    
Minimum Humidity 24    
Precipitation  
Precipitation 0.00 in 0.06 in 2.32 in (1997)
Month to date precipitation 0.38  
Year to date precipitation 22.58  
Sea Level Pressure  
Sea Level Pressure 29.79 in    
Wind  
Wind Speed 10 mph (South)    
Max Wind Speed 17 mph    
Max Gust Speed 22 mph    
Visibility 10 miles    
Events      
T = Trace of Precipitation, MM = Missing Value Source: NWS Daily Summary

Daily Weather History Graph

Daily Weather History Graph

Search for Another Location

Airport or City:

Trip Planner

Search our weather history database for the weather conditions in past years. The results will help you decide how hot, cold, wet, or windy it might be!

Date:

Astronomy

Aug. 07, 2013 Rise Set
Actual Time 6:46 AM CDT 8:22 PM CDT
Civil Twilight 6:19 AM CDT 8:48 PM CDT
Nautical Twilight 5:47 AM CDT 9:20 PM CDT
Astronomical Twilight 5:13 AM CDT 9:54 PM CDT
Moon 7:30 AM CDT (8/7) 8:37 PM CDT (8/7)
Length of Visible Light 14h 29m
Length of Day
13h 36m
New Moon, 1% of the Moon is Illuminated
Aug 7
New Moon
Aug 14
First Quarter
Aug 20
Full
Aug 28
Last Quarter
Sep 5
New

Hourly Weather History & Observations

Time (CDT) Temp. Heat Index Dew Point Humidity Pressure Visibility Wind Dir Wind Speed Gust Speed Precip Events Conditions
12:53 AM 86.0 °F 86.3 °F 62.1 °F 44% 29.81 in 10.0 mi SE 4.6 mph - N/A   Clear
1:53 AM 84.0 °F 84.9 °F 63.0 °F 49% 29.81 in 10.0 mi SSE 9.2 mph - N/A   Clear
2:53 AM 84.9 °F 86.6 °F 64.9 °F 51% 29.80 in 10.0 mi South 11.5 mph - N/A   Clear
3:53 AM 84.0 °F 86.5 °F 66.9 °F 56% 29.80 in 10.0 mi SSE 10.4 mph - N/A   Clear
4:53 AM 82.9 °F 85.8 °F 68.0 °F 60% 29.80 in 10.0 mi SSE 9.2 mph - N/A   Clear
5:53 AM 81.0 °F 83.8 °F 68.0 °F 65% 29.80 in 10.0 mi SSE 10.4 mph - N/A   Clear
6:53 AM 80.1 °F 82.7 °F 68.0 °F 67% 29.81 in 10.0 mi South 6.9 mph - N/A   Clear
7:53 AM 82.0 °F 85.5 °F 69.1 °F 65% 29.82 in 10.0 mi South 10.4 mph - N/A   Clear
8:53 AM 86.0 °F 89.4 °F 68.0 °F 55% 29.83 in 10.0 mi SSW 13.8 mph 21.9 mph N/A   Partly Cloudy
9:53 AM 89.1 °F 92.9 °F 68.0 °F 50% 29.86 in 10.0 mi SSW 13.8 mph - N/A   Partly Cloudy
10:53 AM 93.0 °F 97.4 °F 68.0 °F 44% 29.85 in 10.0 mi SSW 15.0 mph - N/A   Clear
11:53 AM 96.1 °F 101.0 °F 68.0 °F 40% 29.83 in 10.0 mi South 16.1 mph - N/A   Partly Cloudy
12:53 PM 100.0 °F 105.6 °F 68.0 °F 35% 29.82 in 10.0 mi SSW 13.8 mph - N/A   Clear
1:53 PM 100.9 °F 104.6 °F 64.9 °F 31% 29.80 in 10.0 mi South 11.5 mph 19.6 mph N/A   Clear
2:53 PM 102.9 °F 106.8 °F 64.9 °F 29% 29.78 in 10.0 mi South 12.7 mph 20.7 mph N/A   Clear
3:53 PM 104.0 °F 106.6 °F 63.0 °F 26% 29.76 in 10.0 mi SSW 13.8 mph 20.7 mph N/A   Clear
4:53 PM 105.1 °F 107.8 °F 62.1 °F 25% 29.75 in 10.0 mi South 11.5 mph - N/A   Clear
5:53 PM 104.0 °F 105.3 °F 61.0 °F 24% 29.73 in 10.0 mi South 12.7 mph 19.6 mph N/A   Clear
6:53 PM 102.0 °F 104.6 °F 63.0 °F 28% 29.72 in 9.0 mi SSE 17.3 mph 21.9 mph N/A   Clear
7:53 PM 99.0 °F 100.5 °F 63.0 °F 30% 29.72 in 10.0 mi SSE 11.5 mph - N/A   Clear
8:53 PM 95.0 °F 95.6 °F 62.1 °F 33% 29.74 in 10.0 mi SSE 10.4 mph - N/A   Clear
9:53 PM 93.0 °F 94.2 °F 63.0 °F 37% 29.77 in 10.0 mi SSE 9.2 mph - N/A   Clear
10:53 PM 89.1 °F 90.0 °F 63.0 °F 42% 29.79 in 10.0 mi South 8.1 mph - N/A   Clear
11:53 PM 88.0 °F 88.7 °F 63.0 °F 43% 29.80 in 10.0 mi South 6.9 mph - N/A   Clear